Probability
1 0 0 0 0 0 0 0 0 0 0 0 0 0 0 0 0 1 2 5 9 12 13 14 17 15 11 9 10 9 7 5 3 1 1 2 2 2 2 1 0 0 0 0 0 0 0 0 0
1 0 0 0 0 0 0 0 0 0 0 0 0 0 0 0 0 1 2 4 9 12 11 12 15 16 12 9 9 9 8 6 4 3 1 1 1 1 1 1 0 0 0 0 0 0 0 0 0
1 0 0 0 0 0 0 0 0 0 0 0 0 0 0 0 0 0 2 4 7 10 10 10 13 14 12 10 9 8 7 7 6 5 3 1 1 0 0 0 0 0 0 0 0 0 0 0 0
0 0 0 0 0 0 0 0 0 0 0 0 0 0 0 0 0 1 2 4 6 8 9 10 12 12 11 9 8 6 6 7 7 6 5 3 2 1 0 0 0 0 0 0 0 0 0 0 0
1 1 0 0 0 0 0 0 0 0 0 0 0 0 0 1 2 3 3 4 5 6 8 10 12 12 11 8 6 5 5 6 7 7 6 5 3 2 1 0 0 0 0 0 0 0 0 0 0
2 1 0 0 0 0 0 0 0 0 0 1 1 1 0 2 4 6 5 3 4 6 8 10 11 12 13 10 6 4 4 5 6 8 7 6 4 3 2 0 0 0 0 0 0 0 0 0 0
1 1 0 0 0 0 0 0 0 0 0 1 2 1 0 2 4 6 6 5 5 8 10 10 10 11 12 12 9 5 3 3 4 6 6 6 5 3 2 0 0 0 1 0 0 0 0 0 0
0 0 0 0 0 0 0 0 0 0 0 1 2 1 0 1 4 6 7 8 10 11 11 11 11 11 11 11 9 5 3 3 3 4 4 4 4 3 1 0 0 0 0 0 0 0 0 0 1
0 0 0 0 0 0 0 0 0 0 1 3 4 3 1 1 4 6 7 10 13 15 13 12 11 11 9 7 5 4 3 3 3 3 3 2 2 1 1 0 0 0 0 0 0 0 0 0 1
0 0 0 0 0 0 0 0 0 0 1 4 6 5 3 2 4 5 6 8 12 15 14 11 11 11 9 6 4 3 3 3 3 3 3 1 0 0 0 0 0 0 0 0 0 0 0 0 1
0 0 0 0 0 0 0 0 0 0 1 3 5 5 3 3 4 4 4 6 9 12 11 9 10 10 9 7 5 4 4 4 3 3 2 1 0 0 0 0 0 0 0 0 1 1 1 0 1
0 0 0 0 0 0 0 0 0 0 0 2 4 5 3 2 2 3 3 5 6 8 8 8 9 10 9 8 5 4 5 5 4 4 3 1 0 0 0 0 0 0 0 0 2 2 1 0 1
0 0 0 0 0 0 0 0 0 0 0 1 4 5 3 1 1 1 2 3 4 5 6 9 10 11 10 8 6 5 5 5 5 5 4 2 1 1 1 0 0 0 0 0 1 1 1 0 1
0 0 0 0 0 0 0 0 0 0 0 1 4 6 4 2 1 0 1 1 2 4 8 12 12 11 10 9 7 5 5 5 5 6 5 3 2 2 2 1 0 0 0 0 0 0 0 0 0
0 0 0 0 0 0 0 0 0 0 0 1 4 6 5 3 2 1 0 0 1 4 9 12 12 11 10 10 9 7 5 4 5 6 6 4 3 3 3 1 0 0 0 0 0 0 0 0 0
0 0 0 0 0 0 0 0 0 0 0 1 3 5 6 4 3 1 0 1 3 6 8 10 10 10 10 10 10 8 6 5 5 6 6 4 3 3 3 2 1 0 0 0 0 0 0 0 0
0 0 0 0 0 0 0 0 0 0 0 0 2 5 6 5 3 1 0 1 3 6 7 8 9 10 9 10 11 10 7 6 6 6 6 4 3 3 3 2 1 0 0 0 0 0 0 0 0
0 0 0 0 0 0 0 0 0 0 0 0 1 3 5 6 4 1 0 1 3 5 5 6 8 10 11 12 12 11 9 7 6 6 6 4 3 2 2 2 1 0 0 0 0 0 0 0 0
0 0 0 0 0 0 0 0 0 0 0 0 0 1 4 6 5 2 1 2 3 3 4 5 7 9 12 14 14 12 10 8 6 6 5 3 1 1 1 1 0 0 0 0 0 1 0 0 0
0 0 0 0 0 0 0 0 0 0 0 0 0 1 2 4 5 4 3 3 2 2 3 4 6 8 11 13 13 12 11 8 5 4 3 2 0 0 0 0 0 0 0 0 0 0 0 0 0
0 0 0 0 0 0 0 0 0 0 0 0 0 0 1 2 4 5 5 3 1 1 2 3 4 6 8 9 10 11 9 7 5 4 3 2 1 0 1 1 1 1 1 0 0 0 0 0 0
0 0 0 0 0 0 0 0 0 0 0 0 0 0 0 1 3 5 5 2 1 2 2 3 4 5 5 6 7 8 7 6 5 5 4 3 2 2 2 2 2 2 2 1 1 1 1 0 0
0 0 0 0 0 0 0 0 0 0 0 0 0 0 0 0 1 3 3 2 2 2 1 2 4 4 3 3 4 5 5 5 4 4 3 3 3 3 3 3 3 3 3 3 2 2 2 1 1
0 0 0 0 0 0 0 0 0 0 0 0 0 0 0 0 0 1 1 2 2 1 1 2 2 2 1 1 1 2 3 4 4 3 3 3 3 3 3 3 3 3 3 3 3 3 3 3 2
0 0 0 0 0 0 0 0 0 0 0 0 0 0 0 0 0 1 1 1 1 0 1 1 1 0 0 0 0 0 1 3 3 3 3 3 3 3 3 3 3 3 3 3 3 3 2 2 2
0 0 0 0 0 0 0 0 0 0 0 0 0 0 0 0 0 1 2 1 0 0 0 0 0 0 0 0 0 0 0 1 2 3 3 3 3 3 3 3 3 3 3 2 2 1 1 1 1
0 0 0 0 0 0 0 0 0 0 0 0 0 0 0 0 0 1 1 1 0 0 0 0 0 0 0 0 0 0 0 0 1 2 3 3 3 3 2 2 2 2 1 1 1 0 0 0 0
0 0 0 0 0 0 0 0 0 0 0 0 0 0 0 0 0 0 0 0 0 0 0 0 0 0 0 0 0 0 0 0 0 1 1 2 2 1 1 1 1 1 0 0 0 0 0 0 0
0 0 0 0 0 0 0 0 0 0 0 0 0 0 0 0 0 0 0 0 0 0 0 0 0 0 0 0 0 0 0 0 0 0 0 1 1 0 0 0 0 0 0 0 0 0 0 0 0
0 0 0 0 0 0 0 0 0 0 0 0 0 0 0 0 0 0 0 0 0 0 0 0 0 0 0 0 0 0 0 0 0 0 0 0 0 0 0 0 0 0 0 0 0 0 0 0 0
Wind_Speed
12 10 6 2 3 4 5 4 0 3 3 4 5 5 7 7 6 8 3 5 7 9 9 8 9 9 9 9 9 9 9 9 9 9 9 9 9 10 10 9 9 9 10 10 10 10 10 11 10
10 7 3 3 4 5 5 4 1 3 5 3 4 5 7 7 7 7 3 4 7 8 8 8 9 9 9 9 9 9 9 9 9 9 8 9 9 9 9 9 9 9 9 9 9 9 9 9 9
9 6 3 3 4 5 3 2 5 6 6 3 3 6 5 5 5 4 4 5 6 8 8 9 10 9 9 9 9 9 9 8 8 8 8 8 8 8 8 8 8 8 8 8 8 8 8 8 8
4 3 3 4 6 4 2 3 5 6 4 2 4 6 5 5 3 4 5 5 7 8 9 8 9 9 9 9 9 9 9 8 8 7 7 7 7 7 7 7 7 7 7 7 7 7 7 7 6
3 3 4 5 7 4 1 2 2 3 4 2 4 6 5 5 6 6 5 5 7 8 8 8 9 8 8 9 9 9 8 7 7 7 7 6 6 6 6 6 6 6 6 6 6 6 6 5 5
3 3 5 7 7 4 2 0 2 2 3 2 3 5 5 4 4 4 4 5 7 8 8 7 8 8 8 8 8 8 7 7 7 7 7 6 6 6 6 6 5 5 5 5 5 5 5 4 4
3 3 6 6 5 4 3 1 1 1 2 1 1 5 5 4 3 3 4 5 7 8 7 5 5 6 7 7 7 7 6 6 7 7 7 6 6 6 5 5 5 4 4 4 4 4 3 3 3
3 3 5 6 6 4 2 1 2 2 1 2 3 4 5 4 3 4 5 6 7 7 6 5 4 4 4 4 6 6 6 6 6 6 6 6 5 5 4 4 4 4 4 3 3 3 2 2 1
3 3 5 4 4 2 2 1 2 4 4 4 5 5 7 8 5 5 5 5 5 6 5 4 3 3 3 3 4 5 5 5 5 4 4 3 2 3 3 3 3 3 3 2 1 1 1 1 1
3 4 4 2 2 1 2 1 2 2 2 3 6 7 8 6 5 5 5 4 4 4 4 3 3 3 3 2 3 2 2 2 2 2 2 1 2 2 2 3 3 2 1 1 1 1 2 2 2
2 3 3 2 3 3 2 1 1 2 2 2 5 7 7 6 4 4 4 4 4 3 3 3 3 3 3 2 2 1 1 1 1 2 1 1 1 1 1 1 1 0 0 0 1 1 2 1 1
3 3 2 1 2 1 0 0 1 1 2 3 4 7 6 5 4 3 3 3 4 4 3 3 3 3 3 2 1 1 1 1 1 1 1 1 1 1 1 0 0 0 0 1 1 1 1 1 2
6 3 2 1 1 1 0 1 1 1 1 3 5 6 6 4 3 2 2 3 4 3 3 2 2 3 2 2 1 2 1 1 1 1 1 1 1 1 0 0 0 0 0 1 1 1 1 1 2
1 2 2 2 3 2 3 3 3 3 3 3 4 5 5 4 3 2 2 2 2 3 3 2 2 2 2 2 1 2 1 1 1 1 1 1 1 1 1 1 1 1 1 1 1 1 1 1 1
1 2 3 5 5 3 3 5 7 6 5 5 5 5 5 4 3 2 2 2 2 2 3 3 2 2 2 2 1 1 1 1 1 1 1 1 1 1 1 1 1 1 1 2 1 1 1 1 1
3 4 4 5 6 5 5 8 5 6 7 6 5 5 5 4 4 3 2 2 2 2 2 2 2 2 2 2 1 1 1 1 1 1 1 1 1 1 1 1 1 1 1 1 1 1 1 1 1
5 5 6 5 6 5 7 5 4 5 6 6 6 5 5 4 4 3 3 2 2 2 2 3 2 3 2 2 1 1 1 1 1 1 1 1 1 1 1 1 1 1 1 1 1 1 1 2 2
5 5 5 6 5 5 7 6 4 5 6 6 6 6 6 5 4 3 3 2 2 2 2 3 3 2 2 1 1 1 1 1 1 1 1 1 1 1 1 1 1 1 1 1 1 1 1 1 2
4 5 4 2 2 4 8 8 7 7 7 7 6 6 6 6 5 4 3 3 3 3 3 2 2 2 1 1 1 0 0 1 1 1 2 1 1 1 0 1 1 1 1 1 2 1 2 2 1
6 6 5 1 1 3 5 8 7 8 9 8 7 7 7 6 6 5 4 3 3 3 3 2 2 2 1 1 1 0 0 0 0 1 2 2 2 2 1 1 1 1 1 1 2 1 1 1 1
6 6 4 2 2 4 4 7 8 7 7 7 7 6 6 6 6 5 4 4 3 2 2 2 2 2 1 1 1 1 1 0 1 1 1 1 1 1 1 1 1 1 1 1 2 2 1 2 2
5 3 3 2 1 3 3 5 5 5 6 7 6 5 5 5 5 5 5 4 3 2 2 2 2 2 1 1 1 1 1 0 1 1 1 1 1 1 1 1 1 2 1 2 2 2 2 2 2
1 1 2 2 3 3 4 4 6 5 6 7 6 5 4 4 5 5 5 4 4 3 2 1 2 2 1 1 1 1 1 0 1 1 1 1 0 1 1 1 1 2 2 2 2 2 2 2 2
1 1 2 2 1 5 7 7 6 5 7 6 6 4 4 4 4 5 4 4 3 3 2 1 1 1 1 0 1 1 1 0 0 1 2 1 1 1 1 1 1 2 2 2 2 2 3 3 3
2 2 1 1 4 6 4 5 6 2 2 5 6 5 4 4 4 5 5 4 3 3 2 1 1 1 0 0 1 0 0 0 1 1 1 2 2 1 1 1 2 2 2 2 2 2 3 3 3
5 4 4 4 4 2 3 6 3 2 4 4 4 5 4 4 4 4 4 4 3 3 2 2 1 0 1 0 0 1 0 0 1 1 1 1 2 2 1 1 2 2 3 3 2 2 3 3 3
4 4 1 0 1 2 5 3 1 3 4 3 4 4 3 3 3 3 3 3 3 3 2 1 1 0 0 1 1 1 1 1 1 1 1 1 1 2 2 2 2 2 2 2 2 2 2 2 3
2 2 2 2 3 4 4 4 3 4 4 4 4 3 3 3 3 3 2 2 2 2 2 1 1 1 0 0 1 1 1 1 1 1 1 2 2 1 2 2 2 2 2 2 2 2 2 2 2
4 3 3 3 3 3 3 2 2 2 4 5 4 4 3 3 3 2 2 2 2 2 2 1 1 0 0 0 1 1 1 1 1 1 1 2 2 2 2 2 3 3 2 2 2 2 2 2 3
2 4 4 4 4 3 2 3 2 3 3 4 4 3 3 3 3 2 2 2 2 2 1 1 1 1 0 0 0 1 1 0 0 1 1 1 2 2 2 2 2 3 3 2 2 2 2 2 2
Wind_Direction
299 277 261 259 244 232 232 241 112 72 58 36 40 47 67 46 47 102 119 82 96 108 113 112 105 103 100 96 94 94 92 93 91 91 90 90 88 87 87 85 84 85 83 83 82 80 80 80 80
292 284 264 241 242 228 223 216 115 67 77 60 49 59 74 69 67 98 94 82 97 107 112 110 106 100 100 98 95 93 91 92 92 94 94 93 90 88 88 86 85 86 85 83 82 81 81 79 79
277 266 251 238 241 241 227 124 113 92 84 85 71 44 56 64 81 97 99 104 99 101 101 105 105 100 100 99 95 93 91 90 91 92 94 94 93 91 90 89 88 86 85 82 81 82 82 79 77
271 243 244 244 240 258 294 64 103 116 100 73 102 81 72 49 63 93 100 104 102 102 99 103 103 101 97 95 95 90 87 87 89 92 90 91 92 92 92 90 89 90 89 86 83 81 79 78 76
245 246 229 227 239 248 293 60 91 122 128 124 109 100 85 60 67 91 98 100 98 98 101 104 99 100 97 94 93 88 86 85 85 89 90 92 94 91 92 93 89 90 90 90 88 84 80 75 70
244 243 231 220 219 224 235 117 118 113 113 105 105 110 98 82 73 91 95 94 94 96 99 106 97 95 96 96 92 89 88 85 83 86 87 89 94 93 91 93 92 90 91 92 90 88 84 77 67
249 244 243 233 219 210 213 163 111 123 119 113 21 108 117 99 86 98 94 88 89 91 93 96 102 99 91 93 92 89 88 85 82 82 81 79 81 85 87 87 85 86 86 90 91 91 89 81 70
274 268 242 236 229 217 175 122 66 43 76 48 33 99 127 124 108 104 93 81 83 86 92 96 97 97 98 97 91 87 83 82 78 78 78 76 77 80 81 79 77 77 77 80 87 99 97 95 79
264 242 234 237 233 191 117 128 73 39 68 56 51 67 109 122 116 99 92 80 77 79 82 89 96 95 94 97 97 96 90 83 80 80 78 80 88 86 72 76 79 75 66 64 79 117 150 156 239
228 228 230 285 333 71 83 72 125 132 132 108 86 86 108 118 118 112 106 99 87 82 81 79 81 82 88 100 107 116 115 118 108 97 93 56 46 72 81 89 87 82 64 37 276 237 233 240 237
215 232 238 296 10 47 69 46 341 183 190 148 135 128 125 125 127 126 118 112 104 100 87 78 79 81 74 75 99 90 86 106 100 87 78 70 56 67 86 106 110 137 227 260 269 255 246 243 241
223 240 245 281 359 21 151 163 277 312 62 78 113 131 131 140 141 133 126 119 113 102 89 73 79 82 76 64 78 93 82 72 65 83 84 75 58 40 63 101 93 225 250 273 273 261 266 274 266
223 223 197 163 46 19 358 207 232 221 102 87 103 127 140 142 133 121 117 112 113 109 99 84 81 83 83 75 59 78 70 69 68 44 58 65 60 45 20 359 249 300 327 267 285 295 313 312 301
207 212 204 205 210 211 221 221 217 210 164 148 144 152 151 147 143 140 116 107 112 112 111 104 94 94 91 83 64 63 70 68 75 64 44 37 33 20 357 1 352 340 318 300 280 280 290 289 297
191 216 219 215 210 202 220 236 219 195 184 181 178 169 154 153 149 145 135 121 113 111 115 114 114 98 100 92 79 77 64 55 87 84 75 40 25 10 1 7 341 331 322 319 318 301 296 295 304
210 212 215 199 199 186 210 241 203 178 183 184 180 174 164 162 157 149 128 107 102 108 108 107 103 106 103 91 84 75 57 45 45 81 82 43 22 9 1 359 315 324 339 340 329 318 312 309 302
205 222 214 190 198 187 210 235 185 186 188 188 183 180 175 166 160 148 132 118 111 121 115 107 99 103 101 95 91 78 61 41 27 29 66 34 358 2 3 310 298 329 343 336 318 326 320 306 297
206 221 223 200 186 203 224 229 202 195 199 199 190 184 181 180 168 152 143 127 115 104 100 105 109 102 107 110 89 76 53 29 38 31 27 22 12 13 358 323 321 334 341 319 308 307 309 292 289
267 251 244 224 181 219 232 236 225 208 212 207 200 191 187 183 166 158 156 144 126 108 98 96 105 110 104 102 111 113 35 0 13 27 24 23 11 1 336 330 323 326 286 282 296 305 299 301 317
255 259 256 247 188 234 247 252 237 220 215 205 200 196 187 179 168 165 156 144 134 123 115 113 110 113 106 107 138 156 150 146 77 25 13 23 14 1 355 341 292 280 276 290 294 304 286 297 315
244 247 255 253 291 244 260 264 227 216 215 207 203 198 186 180 174 167 156 144 130 122 128 129 122 112 108 110 111 94 79 65 49 17 353 350 355 357 360 359 325 282 253 248 264 261 250 264 279
240 249 263 243 249 248 200 268 236 194 202 205 202 193 182 175 167 163 159 148 139 132 124 119 114 103 103 118 123 122 105 346 317 300 299 303 326 357 340 348 349 312 291 273 262 266 264 249 257
219 314 275 240 244 274 224 238 262 189 204 202 195 191 176 169 160 157 151 140 127 124 115 109 118 101 84 93 132 134 81 11 339 335 327 290 268 2 333 335 335 319 298 283 269 272 271 255 252
151 283 307 266 225 251 216 208 260 201 201 190 184 173 163 154 148 140 127 122 119 113 105 97 100 103 98 87 96 91 102 47 330 337 335 306 287 263 282 314 304 300 301 295 284 262 263 258 257
196 148 121 219 217 239 188 203 244 201 140 157 162 153 144 134 128 133 133 135 136 131 125 117 94 54 85 82 69 59 82 234 241 262 295 310 288 280 264 298 294 296 294 292 287 282 265 256 250
203 191 182 208 228 245 188 221 235 107 90 98 115 127 126 134 130 129 141 147 146 140 132 125 121 327 346 29 340 291 284 235 291 309 305 285 278 277 275 271 272 281 286 291 285 280 284 270 255
184 214 234 199 281 259 232 221 178 113 118 119 113 117 126 138 128 123 126 141 139 139 136 138 160 196 351 1 328 292 317 347 335 339 328 301 293 310 313 295 284 287 289 287 291 272 282 288 265
263 159 140 181 222 249 244 215 215 182 182 156 146 148 143 119 109 113 120 127 132 136 139 136 140 168 198 240 283 321 326 342 330 323 341 325 319 332 324 333 321 310 311 314 305 297 291 295 287
183 188 193 206 232 223 252 252 11 128 141 147 147 143 139 127 120 107 98 106 109 110 114 110 123 100 357 323 337 339 303 329 342 323 333 336 344 349 339 331 330 326 324 323 321 313 310 301 303
225 206 183 190 227 218 243 270 17 64 87 111 124 127 122 113 101 90 85 94 99 105 103 95 81 50 356 338 350 319 288 318 341 328 344 340 337 341 336 340 337 332 330 328 314 303 308 308 312